Location: Bartshausen
(51.8454°N, 9.8167°E)
Time: 08:57:11
(UTC+00:00)

Okean 1-7 - Pass Details

Date: 08 November 2025
Orbit: 566 x 589 km, 82.5° (Epoch: 11 December)

Event Time Altitude Azimuth Distance (km) Brightness Sun altitude
Exits shadow 04:12:37 56° 307° (NW) 704 3.0 -21.0°
Drops below altitude 10° 04:16:29 10° 4° (N) 1,928 5.6 -20.4°
Sets 04:18:44 0° 8° (N) 2,837 6.5 -20.0°
